Regional Weather Roundup
Issued by NWS Sioux Falls, SD

Home | Current Version | Previous Version | Graphics & Text | Print | Product List | Glossary Off
Versions: 1 2 3 4 5 6 7 8 9 10 11 12 13 14 15 16 17 18 19 20 21 22 23 24 25 26 27 28 29 30 31 32 33 34 35 36 37 38 39 40 41 42 43 44 45 46 47 48 49 50

000
ASUS43 KFSD 251502
RWRFSD

WEATHER ROUNDUP FOR SE SOUTH DAKOTA/SW MINNESOTA/NW IOWA
NATIONAL WEATHER SERVICE SIOUX FALLS SD
1000 AM CDT TUE APR 25 2017

NOTE: "FAIR" INDICATES FEW OR NO CLOUDS BELOW 12,000 FEET WITH NO
SIGNIFICANT WEATHER AND OR OBSTRUCTIONS TO VISIBILITY.


SDZ038>040-050-052>070-251600-
SOUTHEAST SOUTH DAKOTA

CITY           SKY/WX    TMP DP  RH WIND       PRES   REMARKS
BROOKINGS      CLOUDY    36  34  92 N14       29.64R
CHAMBERLAIN    CLOUDY    36  33  88 N12G17    29.71R
HURON          CLOUDY    36  33  89 N17       29.69S
MADISON        CLOUDY    37  37 100 N12       29.64R
MITCHELL       CLOUDY    38  34  85 N14       29.70R
SIOUX FALLS    CLOUDY    41  38  89 N9        29.63F
WINNER         LGT RAIN  36  34  92 N17       29.69S
YANKTON        CLOUDY    39  36  87 NW21      29.61F
$$

MNZ071-072-080-081-089-090-097-098-251600-
SOUTHWEST MINNESOTA

CITY           SKY/WX    TMP DP  RH WIND       PRES   REMARKS
FAIRMONT       CLOUDY    41  39  93 NW12      29.58R
JACKSON        CLOUDY    39  37  93 NW12      29.60R FOG
LUVERNE        CLOUDY    37  34  87 NW8       29.62F
MARSHALL       CLOUDY    36  35  96 N22       29.63R
MONTEVIDEO     CLOUDY    37  37 100 N17       29.62R FOG
PIPESTONE      CLOUDY    37  34  87 N9        29.62R
REDWOOD FALLS  CLOUDY    40  37  89 NW12G20   29.59R
TRACY          CLOUDY    37  37 100 N14G22    29.61S FOG
WINDOM         CLOUDY    39  37  93 NW14      29.60R
WORTHINGTON    CLOUDY    38  37  97 N16       29.60R
$$

IAZ001>003-012>014-020>022-031-032-NEZ013-014-SDZ071-251600-
NORTHWEST IOWA

CITY           SKY/WX    TMP DP  RH WIND       PRES   REMARKS
CHEROKEE       LGT RAIN  43  42  97 N16G24    29.52F
DENISON        MOSUNNY   48  45  87 N13G20    29.51R
ESTHERVILLE    CLOUDY    41  40  96 NW13      29.58R
LE MARS        LGT RAIN  43  41  93 N18       29.55F
ORANGE CITY    LGT RAIN  41  39  93 N9        29.60F
SHELDON        CLOUDY    41  37  87 NW12      29.61R
SIOUX CITY     LGT RAIN  43  42  97 N20       29.52F
SPENCER        CLOUDY    41  39  93 NW12      29.61R
STORM LAKE     LGT RAIN  43  41  93 N16G28    29.52F
$$

ABBREVIATIONS USED IN REMARKS
   TC - TEMPERATURE IN CELSIUS
  WCI - WIND CHILL INDEX
   HX - HEAT INDEX
  VSB - VISIBILITY




USA.gov is the U.S. government's official web portal to all federal, state and local government web resources and services.